Regional Weather Roundup
Issued by NWS

Home | Current Version | Previous Version | Text Only | Print | Product List | Glossary Off
Versions: 1 2 3 4 5 6 7 8 9 10 11 12 13 14 15 16 17 18 19 20 21 22 23 24 25 26 27 28 29 30 31 32 33 34 35 36 37 38 39 40 41 42 43 44 45 46 47 48 49 50

000
ASUS43 KIND 030809
RWRIN

WEATHER ROUNDUP FOR INDIANA
NATIONAL WEATHER SERVICE INDIANAPOLIS IN
400 AM EDT FRI JUL 03 2015

NOTE: "FAIR" INDICATES FEW OR NO CLOUDS BELOW 12,000 FEET WITH NO
SIGNIFICANT WEATHER AND/OR OBSTRUCTIONS TO VISIBILITY.

* - STATION DOES NOT REPORT WEATHER SUCH AS PRECIPITATION OR FOG.

+ - STATION NOT QUALITY CONTROLLED BY THE NATIONAL WEATHER SERVICE.
    USE DATA WITH CAUTION...ESPECIALLY DEWPOINT AND RELATIVE
    HUMIDITY OBSERVATIONS.

INZ001>003-010>013-019-020-030900-
NORTHWEST INDIANA

CITY           SKY/WX    TMP DP  RH WIND       PRES   REMARKS
GARY /AIRPORT/ MOCLDY    62  60  94 CALM      29.97S
KNOX *+        MOCLDY    57  57 100 E5        29.96S
LA PORTE +     MOCLDY    60  56  88 E5        29.97F
MICHIGAN CITY+ MOCLDY    55  54  94 CALM      29.98S
MONTICELLO +   CLOUDY    63  58  84 E5        29.94S
RENSSELAER +   CLOUDY    61  59  94 NE6       29.95S
VALPARAISO     MOCLDY    57  54  89 E3        29.97S

$$

LMZ046-743>745-030900-
SOUTHERN LAKE MICHIGAN

STATION/POSITION TIME  TEMP    WIND        PRES    WAVE
                       AIR SEA DIR/SP/G            HT
                 (UTC) (F)     (DEG/KT/KT) (MB)    (FT)
BURNS HARBOR     0800   61      80/  7/  9 1015.2F
MICHIGAN CITY    0800   58      60/  8/ 10   N/A
5NW MICH CITY    0800   60 62  100/  8/ 10   N/A     2

$$

INZ004-005-014>016-021>024-030900-
NORTH CENTRAL INDIANA

CITY           SKY/WX    TMP DP  RH WIND       PRES   REMARKS
GOSHEN         PTCLDY    58  54  86 E3        29.98S
LOGANSPORT +   CLOUDY    61  52  72 E5        29.95F
PERU/GRISSOM   CLOUDY    62  56  80 NE6       29.94S
ROCHESTER +    MOCLDY    61  57  88 NE3       29.96F
SOUTH BEND     PTCLDY    59  53  80 CALM      29.98F
WARSAW +         N/A     55  54  94 E6        29.97S

$$

INZ006>009-017-018-025>027-030900-
NORTHEAST INDIANA

CITY           SKY/WX    TMP DP  RH WIND       PRES   REMARKS
ANGOLA *+        N/A     55  54  94 CALM      29.99F
AUBURN +       PTCLDY    55  52  88 CALM      29.99S
FORT WAYNE     CLOUDY    59  54  83 E5        29.98S
HUNTINGTON +   MOCLDY    58  55  88 E3        29.96S

$$

INZ028-029-035-036-043>045-051>053-030900-
WEST CENTRAL INDIANA

CITY           SKY/WX    TMP DP  RH WIND       PRES   REMARKS
CRAWFORDSVL +  CLOUDY    63  56  77 NE6       29.91F
GREENCASTLE +  CLOUDY    66  59  77 NE7       29.89F
LAFAYETTE      CLOUDY    63  57  81 E8        29.92F
TERRE HAUTE    CLOUDY    69  64  84 NE7       29.87F

$$

INZ030>032-037>040-046>048-054>057-064-065-030900-
CENTRAL INDIANA

CITY           SKY/WX    TMP DP  RH WIND       PRES   REMARKS
CP ATTERBURY + CLOUDY    68  63  83 NE6       29.89S
FISHERS *+     CLOUDY    64  57  77 NE6       29.91F
FRANKFORT +    CLOUDY    64  58  79 NE5       29.94F
GREENWOOD *+   CLOUDY    64  61  88 E8        29.90F
INDIANAPOLIS   LGT RAIN  67  59  75 E13       29.88F
-EAGLE CREEK   LGT RAIN  65  59  81 NE7       29.90F
KOKOMO *+      CLOUDY    61  55  82 E8        29.93F
MARION +       CLOUDY    61  54  77 E8        29.95F
MT COMFORT *+  CLOUDY    64  55  72 NE7       29.91F
SHELBYVILLE    TSTM      66  61  84 NE10      29.89S
ZIONSVILLE +   CLOUDY    65  56  71 E5        29.93S

$$

INZ033-034-041-042-049-050-058-059-030900-
EAST CENTRAL INDIANA

CITY           SKY/WX    TMP DP  RH WIND       PRES   REMARKS
MUNCIE         MOCLDY    62  55  77 E7        29.93F

$$

INZ060-061-067>069-081>083-085>088-030900-
SOUTHWEST INDIANA

CITY           SKY/WX    TMP DP  RH WIND       PRES   REMARKS
EVANSVILLE     PTCLDY    71  69  93 N3        29.84S FOG
HUNTINGBURG *+ PTCLDY    70  66  88 NE3       29.83F
WASHINGTON +   MOCLDY    68  64  87 CALM      29.84F FOG

$$

INZ062-063-066-070>080-084-089>092-030900-
SOUTH CENTRAL AND SOUTHEAST INDIANA

CITY           SKY/WX    TMP DP  RH WIND       PRES   REMARKS
BLOOMINGTON    CLOUDY    71  66  84 NE7       29.87F
MADISON *+     CLOUDY    68  64  88 NE13      29.88F
NORTH VERNON + CLOUDY    70  70 100 NE5       29.88F
SEYMOUR +      CLOUDY    72  68  88 E7        29.86F

$$




USA.gov is the U.S. government's official web portal to all federal, state and local government web resources and services.